Weather History for KAVL - February, 2008

Change the Weather History Date:

Tuesday, February 12, 2008

  Actual Average Record
Temperature  
Mean Temperature 39 °F 40 °F  
Max Temperature 50 °F 50 °F 73 °F (1922)
Min Temperature 27 °F 29 °F 6 °F (1981)
Degree Days  
Heating Degree Days 26 25  
Month to date heating degree days 234 314  
Since 1 July heating degree days 2572 2841  
Cooling Degree Days 0 0  
Month to date cooling degree days 0 0  
Year to date cooling degree days 0 0  
Moisture  
Dew Point 33 °F    
Average Humidity 66    
Maximum Humidity 82    
Minimum Humidity 49    
Precipitation  
Precipitation T in 0.14 in 2.70 in (1873)
Month to date precipitation 1.71 1.59  
Year to date precipitation 4.27 5.26  
Snow  
Snow 0.00 in 0.00 in 7.10 in (2014)
Month to date snowfall T 1.0  
Since 1 July snowfall 3.8 6.1  
Snow Depth -    
Sea Level Pressure  
Sea Level Pressure 30.03 in    
Wind  
Wind Speed 5 mph (SSE)    
Max Wind Speed 16 mph    
Max Gust Speed 20 mph    
Visibility 10 miles    
Events Rain    
T = Trace of Precipitation, MM = Missing Value Source: NWS Daily Summary

Daily Weather History Graph

Daily Weather History Graph

Search for Another Location

Airport or City:

Trip Planner

Search our weather history database for the weather conditions in past years. The results will help you decide how hot, cold, wet, or windy it might be!

Date:

Astronomy

Feb. 12, 2008 Rise Set
Actual Time 7:20 AM EST 6:08 PM EST
Civil Twilight 6:54 AM EST 6:35 PM EST
Nautical Twilight 6:24 AM EST 7:05 PM EST
Astronomical Twilight 5:54 AM EST 7:34 PM EST
Moon 10:10 AM EST (2/12) No Moon Set
Length of Visible Light 11h 40m
Length of Day
10h 48m
Waxing Crescent, 34% of the Moon is Illuminated
Feb 12
Waxing Crescent
Feb 13
First Quarter
Feb 20
Full
Feb 28
Last Quarter
Mar 7
New

Hourly Weather History & Observations

Time (EST) Temp. Windchill Dew Point Humidity Pressure Visibility Wind Dir Wind Speed Gust Speed Precip Events Conditions
12:54 AM 30.9 °F - 23.0 °F 72% 30.22 in 10.0 mi Calm Calm - N/A   Clear
1:54 AM 28.9 °F - 23.0 °F 78% 30.21 in 10.0 mi Calm Calm - N/A   Clear
2:54 AM 28.0 °F 24.2 °F 23.0 °F 81% 30.20 in 10.0 mi SSE 3.5 mph - N/A   Clear
3:54 AM 28.0 °F - 23.0 °F 81% 30.19 in 10.0 mi Calm Calm - N/A   Clear
4:54 AM 28.9 °F - 23.0 °F 78% 30.18 in 10.0 mi Calm Calm - N/A   Clear
5:54 AM 30.0 °F - 23.0 °F 75% 30.17 in 10.0 mi Calm Calm - N/A   Clear
6:54 AM 30.0 °F 26.5 °F 23.0 °F 75% 30.17 in 10.0 mi SSE 3.5 mph - N/A   Clear
7:54 AM 32.0 °F - 24.1 °F 73% 30.17 in 10.0 mi Calm Calm - N/A   Mostly Cloudy
8:54 AM 35.1 °F 30.1 °F 25.0 °F 67% 30.16 in 10.0 mi SSE 5.8 mph - N/A   Partly Cloudy
9:54 AM 39.9 °F 35.8 °F 28.0 °F 63% 30.15 in 10.0 mi SSE 5.8 mph - N/A   Mostly Cloudy
10:54 AM 46.9 °F - 28.0 °F 48% 30.13 in 10.0 mi South 11.5 mph - N/A   Overcast
11:54 AM 48.0 °F - 37.0 °F 66% 30.11 in 10.0 mi South 11.5 mph - 0.00 in Rain Light Rain
12:13 PM 48.2 °F - 39.2 °F 71% 30.09 in 10.0 mi South 11.5 mph - 0.00 in Rain Light Rain
12:54 PM 46.9 °F - 39.0 °F 74% 30.07 in 10.0 mi SSE 9.2 mph - 0.00 in   Overcast
1:54 PM 48.0 °F - 41.0 °F 77% 30.05 in 7.0 mi Variable 3.5 mph - 0.00 in   Overcast
2:54 PM 50.0 °F - 42.1 °F 74% 30.01 in 7.0 mi SSE 10.4 mph - N/A   Overcast
3:02 PM 50.0 °F - 41.0 °F 71% 30.00 in 10.0 mi SSE 12.7 mph - N/A   Mostly Cloudy
3:54 PM 50.0 °F - 39.9 °F 68% 29.99 in 10.0 mi Variable 6.9 mph - N/A   Overcast
4:54 PM 48.9 °F - 39.0 °F 69% 29.95 in 10.0 mi SE 8.1 mph - N/A   Overcast
5:25 PM 48.2 °F - 39.2 °F 71% 29.93 in 10.0 mi SE 9.2 mph - N/A   Overcast
5:54 PM 48.2 °F - 39.2 °F 71% 29.90 in 10.0 mi SE 8.1 mph - N/A   Overcast
6:54 PM 46.0 °F 42.5 °F 37.9 °F 73% 29.93 in 10.0 mi South 6.9 mph - N/A   Overcast
7:54 PM 44.1 °F 40.1 °F 37.9 °F 79% 29.91 in 10.0 mi South 6.9 mph - N/A   Overcast
8:37 PM 44.6 °F 41.4 °F 37.4 °F 76% 29.89 in 10.0 mi SSE 5.8 mph - 0.00 in   Overcast
8:54 PM 42.8 °F 39.3 °F 37.4 °F 81% 29.88 in 10.0 mi SSE 5.8 mph - N/A Rain Light Rain
9:54 PM 44.1 °F 40.1 °F 39.0 °F 82% 29.85 in 10.0 mi SSE 6.9 mph - 0.00 in   Overcast
10:54 PM 43.0 °F - 37.9 °F 82% 29.81 in 10.0 mi Calm Calm - N/A   Overcast
11:46 PM 42.8 °F - 39.2 °F 87% 29.79 in 10.0 mi Calm Calm - N/A   Overcast
11:54 PM 43.0 °F - 39.0 °F 86% 29.78 in 10.0 mi Calm Calm - N/A   Overcast